Regional Weather Roundup
Issued by NWS Upton, NY

Current Version | Previous Version | Text Only | Print | Product List | Glossary On
Versions: 1 2 3 4 5 6 7 8 9 10 11 12 13 14 15 16 17 18 19 20 21 22 23 24 25 26 27 28 29 30 31 32 33 34 35 36 37 38 39 40 41 42 43 44 45 46 47 48 49 50
000
ASUS41 KOKX 292208
RWROKX

REGIONAL WEATHER ROUNDUP
NATIONAL WEATHER SERVICE NEW YORK NY
600 PM EDT WED JUL 29 2015

NOTE: "FAIR" INDICATES FEW OR NO CLOUDS BELOW 12,000 FEET WITH NO
SIGNIFICANT WEATHER AND/OR OBSTRUCTIONS TO VISIBILITY.

NYZ071-072-176-178-NJZ106-104-292300-
NEW YORK CITY METRO AREA


CITY           SKY/WX    TMP DP  RH WIND       PRES   REMARKS
CENTRAL PARK   MOSUNNY   89  66  46 VRB5      29.94F HX  91
LAGUARDIA APRT PTSUNNY   92  65  40 S12G21    29.90F HX  94
KENNEDY INTL   PTSUNNY   86  71  60 S18       29.93F HX  91
NEWARK/LIBERTY PTSUNNY   93  66  40 S10G17    29.90F HX  96
BRNX BOT. GARD   N/A     88  66  48 S18       29.91F HX  90
TETERBORO      MOSUNNY   92  63  38 S12       29.89F HX  93
$$

NYZ177-179-078>081-292300-
LONG ISLAND NEW YORK

CITY           SKY/WX    TMP DP  RH WIND       PRES   REMARKS
FARMINGDALE    SUNNY     87  69  54 SW15      29.93F HX  91
ISLIP          PTSUNNY   87  68  52 SW13      29.92S HX  90
SHIRLEY        SUNNY     87  69  54 S9        29.94S HX  91
WESTHAMPTON    SUNNY     86  67  52 SW9       29.95S
MONTAUK POINT    N/A     86  68  54 SW7       29.94S
$$

NYZ052-065-067-292300-
HUDSON VALLEY

CITY           SKY/WX    TMP DP  RH WIND       PRES   REMARKS
WHITE PLAINS   MOSUNNY   87  63  44 S9        29.92F
NEWBURGH       MOSUNNY   91  64  40 W12       29.93F HX  93
MONTGOMERY     SUNNY     91  66  43 W6        29.92F HX  93
POUGHKEEPSIE   SUNNY     94  59  31 W7        29.89F HX  93
ALBANY         MOSUNNY   91  64  40 S5        29.89F HX  92
$$

NJZ001-105-106-008-010-013-015-019>022-104-292300-
NEW JERSEY

CITY           SKY/WX    TMP DP  RH WIND       PRES   REMARKS
NEWARK/LIBERTY PTSUNNY   93  66  40 S10G17    29.90F HX  96
TETERBORO      MOSUNNY   92  63  38 S12       29.89F HX  93
CALDWELL       MOSUNNY   93  63  36 VRB3      29.91F HX  94
MORRISTOWN     PTSUNNY   95  61  31 SW6       29.92F HX  95
SOMERVILLE     MOSUNNY   92  65  40 W6        29.90F HX  94
SUSSEX         MOSUNNY   89  61  38 SW6       29.94F
ANDOVER          N/A     88  65  46 SW5       29.94F HX  90
TRENTON        MOSUNNY   92  64  39 SW12      29.92F HX  93
MILLVILLE      PTSUNNY   84  71  65 S6        29.97S
ATLANTIC CITY  MOSUNNY   85  74  69 S13       29.96S HX  92
WRIGHTSTOWN    MOSUNNY   90  74  58 SW15      29.91S HX  98
TOMS RIVER       N/A     88  73  62 S13G18    29.94S HX  96
BELMAR         PTSUNNY   84  72  65 S8        29.94S
$$

PAZ047>061-062-071-292300-
EASTERN PENNSYLVANIA

CITY           SKY/WX    TMP DP  RH WIND       PRES   REMARKS
PHILADELPHIA   PTSUNNY   90  71  53 SW13      29.94S HX  96
ALLENTOWN      MOSUNNY   89  66  46 SW10      29.93F HX  91
SCRANTON       MOSUNNY   89  62  40 SW6       29.94F
$$

CTZ002-004>006-009-010-012-RIZ004-006-007-MAZ004-011-015-292300-
SOUTHERN NEW ENGLAND
 IN CT

CITY           SKY/WX    TMP DP  RH WIND       PRES   REMARKS
BRADLEY INTL   MOSUNNY   92  65  40 W10       29.89S HX  94
HARTFORD       SUNNY     94  63  35 W7        29.89S HX  95
DANBURY        SUNNY     90  61  37 SW9       29.94S HX  90
WTRBRY/OXFORD  MOSUNNY   90  63  40 VRB6      29.97F HX  90
BRIDGEPORT     SUNNY     90  68  48 S9        29.91S HX  94
MERIDEN        SUNNY     92  64  39 SW8       29.90F HX  93
NEW HAVEN      SUNNY     88  70  55 S9        29.91F HX  93
CHESTER        FAIR      86  66  51 S7        29.95R
GROTON         SUNNY     82  70  66 SW8       29.91S
WILLIMANTIC    SUNNY     90  67  46 S14       29.90F HX  93

 IN RI

CITY           SKY/WX    TMP DP  RH WIND       PRES   REMARKS
PROVIDENCE     MOSUNNY   88  68  51 SW10      29.90S HX  91
BLOCK ISLAND     N/A     81  72  74 SW15G21   29.94F
WESTERLY       SUNNY     84  69  60 W6        29.93S

 IN MA

CITY           SKY/WX    TMP DP  RH WIND       PRES   REMARKS
BOSTON         MOSUNNY   92  65  40 VRB6      29.87S HX  94
WORCESTER      SUNNY     86  64  47 W6        29.95S
WESTFIELD      SUNNY     92  63  38 W9        29.89F HX  93
PROVINCETOWN   MOSUNNY   82  64  54 SW12      29.90S
NANTUCKET      PTSUNNY   77  71  82 SW9       29.93S
$$

ANZ330-335-338-340-345-350-353-355-292300-
COASTAL MARINE OBSERVATIONS


STATION/POSITION TIME  SKY/WX   TEMP    WIND        PRES    VSBY  WAVE
                                AIR SEA DIR/SP/G                  HT/PER
                 (UTC)          (F)     (DEG/KT/KT) (MB)    (MI)  (FT/S)
NY HARB ENTRANCE 2150            80 78  200/ 16/ 17 1012.9          2/11
4S FIRE IS       NOT AVBL
20S FIRE ISLAND  2150            78 75  210/ 12/ 14 1013.4          2/10
GREAT SOUTH BAY  NOT AVBL
23SW MTP         2150            77 75  230/ 10/ 12 1013.4          3/ 9
HUDSON CANYON    NOT AVBL
KINGS POINT      2100            85 76              1012.5
EXECUTION ROCKS  2100            84     190/  6/  8   N/A
CENTRAL LI SOUND NOT AVBL
EASTERN LI SOUND 2100            78 70  210/  8/ 10   N/A
ROBBINS REEF     2100            83                 1011.9
$$


>>>>>>>>>>>>>>>>>>>>>>>>>>>> KEY <<<<<<<<<<<<<<<<<<<<<<<<<<<
>                                                          <
>     SKY/WX - SKY CONDITION/PRESENT WEATHER               <
>     TMP    - TEMPERATURE IN FAHRENHEIT                   <
>     DP     - DEWPOINT IN FAHRENHEIT                      <
>     RH     - RELATIVE HUMIDITY IN PERCENT                <
>     WIND   - DIRECTION AND SPEED IN MPH                  <
>     PRES   - MEAN SEA LEVEL PRESSURE IN INCHES OF HG     <
>     WCI    - WIND CHILL INDEX                            <
>     VSB    - VISIBILITY IN MILES                         <
>     HX     - HEAT INDEX                                  <
>     TC     - TEMPERATURE IN CELSIUS                      <
>     VRB    - VARIABLE WIND DIRECTION                     <
>                                                          <
>>>>>>>>>>>>>>>>>>>>>>>>>>>> KEY <<<<<<<<<<<<<<<<<<<<<<<<<<<




USA.gov is the U.S. government's official web portal to all federal, state and local government web resources and services.